| time (UTC) | temp C | wind direction | speed KPH | gust KPH | rain 1hr cm | rain 24hr cm | rain mn cm | humidity % | barometer mb |
| 20260504150109 | 20 | 272 | 1.6 | 14.5 | 0.00 | 0.00 | 0.00 | 45 | 1016.1 |
| 20260504081502 | 7 | 194 | 0.0 | 0.0 | 0.00 | 0.00 | 0.00 | 81 | 1015.8 |
| 20260504044534 | 11 | 238 | 0.0 | 1.6 | 0.00 | 0.00 | 0.00 | 62 | 1016.1 |
| 20260504043035 | 11 | 221 | 0.0 | 6.4 | 0.00 | 0.00 | 0.00 | 56 | 1016.0 |
| 20260504041529 | 11 | 153 | 0.0 | 6.4 | 0.00 | 0.00 | 0.00 | 56 | 1015.6 |
| 20260504040039 | 11 | 147 | 1.6 | 3.2 | 0.00 | 0.00 | 0.00 | 55 | 1015.8 |
| 20260504034525 | 11 | 159 | 1.6 | 6.4 | 0.00 | 0.00 | 0.00 | 55 | 1015.9 |
| 20260504033024 | 11 | 151 | 1.6 | 3.2 | 0.00 | 0.00 | 0.00 | 54 | 1015.9 |
| 20260504031524 | 11 | 163 | 0.0 | 3.2 | 0.00 | 0.00 | 0.00 | 52 | 1015.8 |
| 20260504030023 | 11 | 174 | 1.6 | 3.2 | 0.00 | 0.00 | 0.00 | 52 | 1015.9 |
| 20260504024523 | 11 | 190 | 0.0 | 3.2 | 0.00 | 0.00 | 0.00 | 53 | 1016.0 |
| 20260504023022 | 11 | 194 | 0.0 | 3.2 | 0.00 | 0.00 | 0.00 | 53 | 1015.8 |
| 20260504021521 | 11 | 208 | 0.0 | 0.0 | 0.00 | 0.00 | 0.00 | 55 | 1015.6 |
| 20260504020021 | 11 | 208 | 0.0 | 1.6 | 0.00 | 0.00 | 0.00 | 58 | 1015.5 |
| 20260504014525 | 11 | 209 | 0.0 | 1.6 | 0.00 | 0.00 | 0.00 | 59 | 1015.3 |
| 20260504013019 | 11 | 211 | 0.0 | 0.0 | 0.00 | 0.00 | 0.00 | 61 | 1015.1 |
| 20260504011518 | 11 | 211 | 0.0 | 0.0 | 0.00 | 0.00 | 0.00 | 59 | 1015.1 |
| 20260504010018 | 12 | 211 | 0.0 | 0.0 | 0.00 | 0.00 | 0.00 | 57 | 1015.1 |
| 20260504004521 | 12 | 211 | 0.0 | 0.0 | 0.00 | 0.00 | 0.00 | 53 | 1015.0 |
| 20260504003017 | 13 | 211 | 0.0 | 1.6 | 0.00 | 0.00 | 0.00 | 49 | 1014.9 |
| 20260504001517 | 15 | 211 | 0.0 | 0.0 | 0.00 | 0.00 | 0.00 | 43 | 1014.7 |
| 20260504000016 | 15 | 211 | 0.0 | 1.6 | 0.00 | 0.00 | 0.00 | 39 | 1014.7 |
| 20260503234516 | 16 | 170 | 0.0 | 3.2 | 0.00 | 0.00 | 0.00 | 38 | 1014.7 |
| 20260503233019 | 16 | 209 | 0.0 | 6.4 | 0.00 | 0.00 | 0.00 | 36 | 1014.8 |
| 20260503231515 | 16 | 213 | 0.0 | 8.0 | 0.00 | 0.00 | 0.00 | 35 | 1014.8 |
| 20260503230015 | 16 | 176 | 0.0 | 6.4 | 0.00 | 0.00 | 0.00 | 35 | 1014.7 |
| 20260503224514 | 17 | 244 | 0.0 | 3.2 | 0.00 | 0.00 | 0.00 | 34 | 1014.8 |
| 20260503223013 | 17 | 256 | 0.0 | 6.4 | 0.00 | 0.00 | 0.00 | 32 | 1014.9 |
| 20260503221512 | 17 | 286 | 0.0 | 9.7 | 0.00 | 0.00 | 0.00 | 33 | 1015.0 |
| 20260503220012 | 17 | 63 | 0.0 | 6.4 | 0.00 | 0.00 | 0.00 | 30 | 1015.1 |
| 20260503214511 | 17 | 234 | 0.0 | 11.3 | 0.00 | 0.00 | 0.00 | 30 | 1015.3 |
| 20260503213017 | 17 | 305 | 0.0 | 8.0 | 0.00 | 0.00 | 0.00 | 32 | 1015.4 |
| 20260503211510 | 18 | 321 | 1.6 | 8.0 | 0.00 | 0.00 | 0.00 | 28 | 1015.5 |
| 20260503210009 | 18 | 5 | 0.0 | 8.0 | 0.00 | 0.00 | 0.00 | 31 | 1015.5 |
| 20260503204508 | 18 | 215 | 3.2 | 11.3 | 0.00 | 0.00 | 0.00 | 32 | 1015.7 |
| 20260503203013 | 18 | 240 | 1.6 | 9.7 | 0.00 | 0.00 | 0.00 | 32 | 1015.9 |
| 20260503201506 | 18 | 351 | 1.6 | 11.3 | 0.00 | 0.00 | 0.00 | 33 | 1016.2 |
| 20260503200008 | 17 | 302 | 1.6 | 8.0 | 0.00 | 0.00 | 0.00 | 32 | 1016.4 |
| 20260503194504 | 17 | 263 | 1.6 | 8.0 | 0.00 | 0.00 | 0.00 | 31 | 1016.6 |
| 20260503193001 | 17 | 263 | 1.6 | 9.7 | 0.00 | 0.00 | 0.00 | 33 | 1016.7 |
| 20260503191607 | 17 | 347 | 0.0 | 8.0 | 0.00 | 0.00 | 0.00 | 33 | 1016.9 |
| 20260503190058 | 17 | 218 | 1.6 | 11.3 | 0.00 | 0.00 | 0.00 | 33 | 1017.1 |
| 20260503184554 | 17 | 285 | 3.2 | 12.9 | 0.00 | 0.00 | 0.00 | 33 | 1017.3 |
| 20260503183109 | 16 | 351 | 3.2 | 16.1 | 0.00 | 0.00 | 0.00 | 32 | 1017.5 |
| 20260503181618 | 16 | 291 | 1.6 | 11.3 | 0.00 | 0.00 | 0.00 | 36 | 1017.8 |
| 20260503180048 | 16 | 308 | 0.0 | 11.3 | 0.00 | 0.00 | 0.00 | 37 | 1017.9 |
| 20260503174548 | 15 | 305 | 4.8 | 19.3 | 0.00 | 0.00 | 0.00 | 39 | 1018.2 |
| 20260503173054 | 15 | 166 | 1.6 | 8.0 | 0.00 | 0.00 | 0.00 | 41 | 1018.2 |
| 20260503171544 | 15 | 331 | 4.8 | 14.5 | 0.00 | 0.00 | 0.00 | 36 | 1018.4 |